Location: Asheville, NC
(35.6000°N, 82.5500°W)
Time: 17:27:51
(UTC-04:00)

Vanguard 1 Rocket - Pass Details

Date: 09 December 2017
Orbit: 652 x 4225 km, 34.3° (Epoch: 20 July)

Event Time Altitude Azimuth Distance (km) Brightness Sun altitude
Rises 17:10:59 0° 224° (SW) 4,257 12.6 0.3°
Reaches altitude 10° 17:13:23 10° 218° (SW) 3,594 11.9 -0.2°
Maximum altitude 17:22:45 52° 145° (SE) 2,651 9.7 -1.9°
Drops below altitude 10° 17:40:42 10° 77° (ENE) 6,575 11.1 -5.1°
Enters shadow 17:43:41 - 75° (ENE) 7,272 11.3 -5.7°
